National Weather Service Raw Text Product

Displaying AFOS PIL: RWRIA Received: 2018-07-12 05:00 UTC


658 
ASUS43 KDMX 120506
RWRIA 

WEATHER ROUNDUP FOR IOWA
NATIONAL WEATHER SERVICE DES MOINES IA
1200 AM CDT THU JUL 12 2018

NOTE: "FAIR" INDICATES FEW OR NO CLOUDS BELOW 12,000 FEET WITH NO
SIGNIFICANT WEATHER AND/OR OBSTRUCTIONS TO VISIBILITY.

* - THESE STATIONS ARE NOT NWS STATIONS...THUS NOT UNDER NWS
QUALITY CONTROL.  THEY ALSO DO NOT REPORT WEATHER SUCH 
AS PRECIPITATION OR FOG.  

IAZ001>003-012>014-020>022-031>034-043>046-120600-
   NORTHWEST IOWA
  
CITY           SKY/WX    TMP DP  RH WIND       PRES   REMARKS
CARROLL *      CLEAR     77  77 100 SE7       30.04S                  
CHEROKEE *     CLEAR     77  74  88 S6        30.01S                  
DENISON *      CLEAR     79  73  83 SE8       30.04S HX  82           
LE MARS *      CLEAR     79  73  83 S7        29.99S HX  82           
ORANGE CITY *  CLEAR     81  75  83 S7        30.00S HX  86           
SHELDON *      CLEAR     79  75  89 S10       29.98F HX  82           
SIOUX CITY     CLEAR     80  74  81 S9        29.99S HX  85           
STORM LAKE *   CLEAR     77  73  88 S9G16     30.03S                  
$$
 
IAZ055>058-069>071-079>083-090>094-120600-
   SOUTHWEST IOWA
  
CITY           SKY/WX    TMP DP  RH WIND       PRES   REMARKS
ATLANTIC *     MOCLDY    79  73  83 CALM      30.04S HX  82           
AUDUBON *      CLEAR     77  73  88 CALM      30.06S                  
CLARINDA *     CLEAR     75  73  94 CALM      30.06S                  
COUNCIL BLFS * CLEAR     81  73  78 SE8       30.03S HX  85           
CRESTON *      CLEAR     79  70  73 S9        30.08S HX  81           
HARLAN  *        N/A     77  73  88 CALM      30.03F                  
LAMONI         CLEAR     80  65  59 SE7       30.08R HX  82           
RED OAK *      PTCLDY    81  72  74 S5        30.04R HX  84           
SHENANDOAH *   CLEAR     79  72  78 SE9       30.03S HX  82           
$$
 
IAZ047>049-059>061-072>074-084-120600-
   CENTRAL IOWA
  
CITY           SKY/WX    TMP DP  RH WIND       PRES   REMARKS
AMES           CLEAR     77  68  73 SE12      30.07R                  
ANKENY *       CLEAR     77  68  73 SE7       30.08R                  
BOONE *        CLEAR     75  70  83 SE8       30.06S                  
CHARITON *     CLEAR     77  64  65 SE7       30.08S                  
DES MOINES     CLEAR     79  67  66 SE10      30.06R HX  81           
GRINNELL*      CLEAR     75  63  67 SE9       30.10S                  
KNOXVILLE *    CLEAR     77  64  65 SE8       30.07S                  
MARSHALLTOWN   CLEAR     75  66  73 SE12      30.07S                  
NEWTON *       CLEAR     73  66  78 SE9G15    30.09R                  
PELLA *        CLEAR     75  64  66 SE8       30.09S                  
PERRY *        FAIR      79  71  77 SE9       30.06R HX  82           
$$
 
IAZ004>006-015-016-023>025-035-036-120600-
   NORTH CENTRAL IOWA
  
CITY           SKY/WX    TMP DP  RH WIND       PRES   REMARKS
ALGONA *       CLEAR     79  72  78 S14G21    30.03S HX  82           
CLARION *      PTCLDY    77  68  73 SE10G17   30.06S                  
ESTHERVILLE    CLEAR     79  74  84 S14       30.01R HX  82           
FORT DODGE *   CLEAR     80  71  74 S10       30.05S HX  84           
MASON CITY     CLEAR     75  68  78 S15       30.07S                  
FOREST CITY *  FAIR      75  68  78 S10G16    30.06S                  
WEBSTER CITY * CLEAR     77  68  73 SE14      30.04S                  
IOWA FALLS *   FAIR      73  67  79 SE7       30.09R                  
$$

IAZ007>011-017>019-026>030-037>042-050>054-066-120600-
   NORTHEAST IOWA
  
CITY           SKY/WX    TMP DP  RH WIND       PRES   REMARKS
CEDAR RAPIDS   FAIR      71  65  81 SE6       30.10R                  
CHARLES CITY * FAIR      73  66  78 SE12      30.08S                  
CLINTON *      FAIR      72  65  78 SE7       30.13S                  
DECORAH *      MOCLDY    72  66  83 SE9       30.08S                  
DUBUQUE        FAIR      72  64  76 S10       30.12F                  
MONTICELLO *   FAIR      72  66  83 SE7       30.10S                  
OELWEIN *      FAIR      72  68  88 SE7       30.11R                  
WATERLOO       FAIR      75  65  70 SE8       30.07S                  
$$
 
IAZ064-065-067-068-078-120600-
   EAST CENTRAL IOWA
  
CITY           SKY/WX    TMP DP  RH WIND       PRES   REMARKS
DAVENPORT      FAIR      71  65  81 SE6       30.14R                  
IOWA CITY      FAIR      72  65  78 SE5       30.12R                  
MUSCATINE *      N/A     72  66  83 CALM      30.11R                  
QUAD CITIES    FAIR      72  66  81 E3        30.11S                  
$$
 
IAZ062-063-075>077-085>089-095>099-120600-
   SOUTHEAST IOWA
  
CITY           SKY/WX    TMP DP  RH WIND       PRES   REMARKS
BURLINGTON     CLEAR     75  67  76 SE6       30.11S                  
FAIRFIELD *    CLEAR     70  63  78 SE6       30.10S                  
FORT MADISON * CLEAR     72  66  83 CALM      30.12S                  
KEOKUK *       CLEAR     73  66  78 SE3       30.10S                  
OSKALOOSA *    FAIR      70  65  83 S6        30.10S                  
CENTERVILLE *    N/A     75  64  69 SE3       30.11S                  
OTTUMWA        CLEAR     76  63  64 SE8       30.10R                  
WASHINGTON *   CLEAR     70  68  94 SE7       30.12R                  
$$

ABBREVIATIONS USED IN REMARKS
   TC - TEMPERATURES IN CELSIUS
  WCI - WIND CHILL INDEX
   HX - HEAT INDEX
  VSB - VISIBILITY  
$$

  

501 
ASUS43 KDMX 120501
RWRIA 

WEATHER ROUNDUP FOR IOWA
NATIONAL WEATHER SERVICE DES MOINES IA
1200 AM CDT THU JUL 12 2018

NOTE: "FAIR" INDICATES FEW OR NO CLOUDS BELOW 12,000 FEET WITH NO
SIGNIFICANT WEATHER AND/OR OBSTRUCTIONS TO VISIBILITY.

* - THESE STATIONS ARE NOT NWS STATIONS...THUS NOT UNDER NWS
QUALITY CONTROL.  THEY ALSO DO NOT REPORT WEATHER SUCH 
AS PRECIPITATION OR FOG.  

IAZ001>003-012>014-020>022-031>034-043>046-120600-
   NORTHWEST IOWA
  
CITY           SKY/WX    TMP DP  RH WIND       PRES   REMARKS
CARROLL *      CLEAR     77  77 100 SE7       30.04S                  
CHEROKEE *     CLEAR     77  74  88 S6        30.01S                  
DENISON *      CLEAR     79  73  83 SE8       30.04S HX  82           
LE MARS *      CLEAR     79  73  83 S7        29.99S HX  82           
ORANGE CITY *  CLEAR     81  75  83 S7        30.00S HX  86           
SHELDON *      CLEAR     79  75  89 S10       29.98F HX  82           
SIOUX CITY     CLEAR     80  74  81 S9        29.99S HX  85           
STORM LAKE *   CLEAR     77  73  88 S9G16     30.03S                  
$$
 
IAZ055>058-069>071-079>083-090>094-120600-
   SOUTHWEST IOWA
  
CITY           SKY/WX    TMP DP  RH WIND       PRES   REMARKS
ATLANTIC *     MOCLDY    79  73  83 CALM      30.04S HX  82           
AUDUBON *      CLEAR     77  73  88 CALM      30.06S                  
CLARINDA *     CLEAR     75  73  94 CALM      30.06S                  
COUNCIL BLFS * CLEAR     81  73  78 SE8       30.03S HX  85           
CRESTON *      CLEAR     79  70  73 S9        30.08S HX  81           
HARLAN  *        N/A     77  73  88 CALM      30.03F                  
LAMONI         CLEAR     80  65  59 SE7       30.08R HX  82           
RED OAK *      PTCLDY    81  72  74 S5        30.04R HX  84           
SHENANDOAH *   CLEAR     79  72  78 SE9       30.03S HX  82           
$$
 
IAZ047>049-059>061-072>074-084-120600-
   CENTRAL IOWA
  
CITY           SKY/WX    TMP DP  RH WIND       PRES   REMARKS
AMES           CLEAR     77  68  73 SE12      30.07R                  
ANKENY *       CLEAR     77  68  73 SE7       30.08R                  
BOONE *        CLEAR     75  70  83 SE8       30.06S                  
CHARITON *     CLEAR     77  64  65 SE7       30.08S                  
DES MOINES     CLEAR     79  67  66 SE10      30.06R HX  81           
GRINNELL*      CLEAR     75  63  67 SE9       30.10S                  
KNOXVILLE *    CLEAR     77  64  65 SE8       30.07S                  
MARSHALLTOWN   CLEAR     75  66  73 SE12      30.07S                  
NEWTON *       CLEAR     73  66  78 SE9G15    30.09R                  
PELLA *        CLEAR     75  64  66 SE8       30.09S                  
PERRY *        FAIR      79  71  77 SE9       30.06R HX  82           
$$
 
IAZ004>006-015-016-023>025-035-036-120600-
   NORTH CENTRAL IOWA
  
CITY           SKY/WX    TMP DP  RH WIND       PRES   REMARKS
ALGONA *       CLEAR     79  72  78 S14G21    30.03S HX  82           
CLARION *      PTCLDY    77  68  73 SE10G17   30.06S                  
ESTHERVILLE    CLEAR     79  74  84 S14       30.01R HX  82           
FORT DODGE *   CLEAR     80  71  74 S10       30.05S HX  84           
MASON CITY     CLEAR     75  68  78 S15       30.07S                  
FOREST CITY *  FAIR      75  68  78 S10G16    30.06S                  
IOWA FALLS *   FAIR      73  67  79 SE7       30.09R                  
$$

IAZ007>011-017>019-026>030-037>042-050>054-066-120600-
   NORTHEAST IOWA
  
CITY           SKY/WX    TMP DP  RH WIND       PRES   REMARKS
CEDAR RAPIDS   FAIR      71  65  81 SE6       30.10R                  
CHARLES CITY * FAIR      73  66  78 SE12      30.08S                  
CLINTON *      FAIR      72  65  78 SE7       30.13S                  
DECORAH *      MOCLDY    72  66  83 SE9       30.08S                  
DUBUQUE        FAIR      72  64  76 S10       30.12F                  
MONTICELLO *   FAIR      72  66  83 SE7       30.10S                  
OELWEIN *      FAIR      72  68  88 SE7       30.11R                  
WATERLOO       FAIR      75  65  70 SE8       30.07S                  
$$
 
IAZ064-065-067-068-078-120600-
   EAST CENTRAL IOWA
  
CITY           SKY/WX    TMP DP  RH WIND       PRES   REMARKS
DAVENPORT      FAIR      71  65  81 SE6       30.14R                  
IOWA CITY      FAIR      72  65  78 SE5       30.12R                  
MUSCATINE *      N/A     72  66  83 CALM      30.11R                  
QUAD CITIES    FAIR      72  66  81 E3        30.11S                  
$$
 
IAZ062-063-075>077-085>089-095>099-120600-
   SOUTHEAST IOWA
  
CITY           SKY/WX    TMP DP  RH WIND       PRES   REMARKS
BURLINGTON     CLEAR     75  67  76 SE6       30.11S                  
FAIRFIELD *    CLEAR     70  63  78 SE6       30.10S                  
FORT MADISON * CLEAR     72  66  83 CALM      30.12S                  
KEOKUK *       CLEAR     73  66  78 SE3       30.10S                  
OSKALOOSA *    FAIR      70  65  83 S6        30.10S                  
CENTERVILLE *    N/A     75  64  69 SE3       30.11S                  
OTTUMWA        CLEAR     76  63  64 SE8       30.10R                  
WASHINGTON *   CLEAR     70  68  94 SE7       30.12R                  
$$

ABBREVIATIONS USED IN REMARKS
   TC - TEMPERATURES IN CELSIUS
  WCI - WIND CHILL INDEX
   HX - HEAT INDEX
  VSB - VISIBILITY  
$$